Location: B�rgermoos
(47.6500°N, 9.0667°E)
Time: 12:00:53
(UTC+00:00)

Vanguard 2 Rocket - All Passes

Search period start: 04 August 2021 00:00
Search period end: 14 August 2021 00:00
Orbit: 555 x 3325 km, 32.9° (Epoch: 04 August)

Date Brightness Start Highest point End Pass type
(mag) Time Alt. Az. Time Alt. Az. Time Alt. Az.
04 Aug - 07:22:35 10° SSW 07:23:33 11° S 07:24:31 10° SSE daylight
05 Aug - 06:23:43 10° S 06:24:23 10° S 06:25:03 10° SSE daylight
06 Aug - 05:24:47 10° S 05:25:12 10° S 05:25:37 10° SSE daylight
06 Aug - 07:36:30 10° SSW 07:37:09 10° S 07:37:47 10° S daylight
07 Aug - 06:36:30 10° SSW 06:38:00 12° S 06:39:27 10° SSE daylight
08 Aug - 05:36:35 10° SSW 05:38:51 13° S 05:40:52 10° SSE daylight
09 Aug - 04:36:35 10° SSW 04:39:37 14° S 04:42:09 10° SE daylight
09 Aug - 06:50:16 10° SSW 06:51:35 11° SSW 06:52:51 10° S daylight
10 Aug - 03:36:32 10° SSW 03:40:16 15° S 03:43:18 10° SE visible
10 Aug - 05:49:44 10° SW 05:52:28 14° S 05:54:50 10° SSE daylight
11 Aug - 02:36:30 10° SSW 02:40:45 14° SSE 02:44:10 10° SE visible
11 Aug - 04:49:18 10° SW 04:53:18 17° S 04:56:26 10° SE daylight
12 Aug - 01:36:44 10° S 01:41:03 13° SSE 01:44:35 10° SE visible
12 Aug - 03:48:45 10° SW 03:53:59 19° S 03:57:50 10° SE daylight
12 Aug - 06:03:23 10° SW 06:06:02 14° SSW 06:08:18 10° SSE daylight
13 Aug - 00:37:43 10° S 00:41:09 12° SSE 00:44:08 10° SE visible
13 Aug - 02:48:06 10° SW 02:54:29 20° S 02:59:03 10° SE visible
13 Aug - 05:02:31 10° SW 05:06:54 18° SSW 05:10:16 10° SSE daylight
